Regional Weather Roundup
Issued by NWS

Home | Current Version | Previous Version | Graphics & Text | Print | Product List | Glossary On
Versions: 1 2 3 4 5 6 7 8 9 10 11 12 13 14 15 16 17 18 19 20 21 22 23 24 25 26 27 28 29 30 31 32 33 34 35 36 37 38 39 40 41 42 43 44 45 46 47 48 49 50
000
ASUS43 KLMK 090510
RWRKY
KENTUCKY REGIONAL WEATHER ROUNDUP
NATIONAL WEATHER SERVICE LOUISVILLE KY
1200 AM EST TUE FEB 09 2016

NOTE "FAIR" INDICATES FEW OR NO CLOUDS BELOW 12,000 FEET
WITH NO SIGNIFICANT WEATHER AND/OR OBSTRUCTIONS TO VISIBILITY.

KYZ001>023-026-027-061>063-070>075-090600-
WESTERN AND SOUTH CENTRAL KENTUCKY

CITY           SKY/WX    TMP DP  RH WIND       PRES   REMARKS
PADUCAH        CLOUDY    27  19  72 NW8       29.92F WCI  19
HENDERSON      CLOUDY    21  18  86 NW9       29.89F WCI  11
OWENSBORO      LGT SNOW  23  19  85 NW9       29.88F FOG     WCI  13
HOPKINSVILLE   CLOUDY    26  19  73 NW13      29.89F WCI  15
BOWLING GREEN  LGT SNOW  24  20  84 NW7       29.88S FOG     WCI  16
GLASGOW        FLURRIES  24  19  83 NW8       29.85S WCI  15
$$

KYZ024-025-028>034-038-045-046-053-090600-
NORTH CENTRAL KENTUCKY

CITY           SKY/WX    TMP DP  RH WIND       PRES   REMARKS
LOUISVILLE/SDF LGT SNOW  23  17  78 W13       29.82F WCI  11
LOUISVILLE/LOU CLOUDY    23  17  78 W10       29.82F WCI  12
FORT KNOX      FLURRIES  21  16  79 W10       29.80S WCI  10
$$

KYZ035>037-039>044-047>052-055>060-089>105-090600-
NORTHEAST KENTUCKY

CITY           SKY/WX    TMP DP  RH WIND       PRES   REMARKS
LEXINGTON      LGT SNOW  25  21  85 W10       29.75F FOG     WCI  15
COVINGTON      LGT SNOW  23  19  85 W13G18    29.73S FOG     WCI  11
FRANKFORT      MOCLDY    23  17  78 W6        29.76F WCI  16
$$

KYZ054-064>069-076>088-106>120-090600-
SOUTHEAST KENTUCKY

CITY           SKY/WX    TMP DP  RH WIND       PRES   REMARKS
JACKSON        LGT SNOW  26  21  81 W8G18     29.71S WCI  18
LONDON         CLOUDY    27  22  81 W12       29.75F WCI  17
SOMERSET       FLURRIES  27  21  80 NW7       29.80F WCI  19
MIDDLESBORO    CLOUDY    29  22  74 CALM      29.76F
MONTICELLO     LGT SNOW  26  22  84 W14G22    29.81F FOG     WCI  14
$$




USA.gov is the U.S. government's official web portal to all federal, state and local government web resources and services.